SPL151 LEBL-LSGG

Flight info

Callsign SPL151
Flight time N/A
Altitude 38000
Route DALIN DCT PIVUS DCT DIBER DCT ADITA DCT MAXIR DCT LUSOL DCT BODRU DCT OKTET DCT IRMAR DCT KINES
Aircraft A320/M-SDE3FGHIRWY/LB1

Departure

Time N/A
Airport Josep Tarradellas Barcelona-El Prat Airport (LEBL)

Arrival

Time 2026-05-07 15:56
Airport Geneva International Airport (LSGG)
Time Latitude Longitude Altitude Speed Heading
2026-05-07 15:52 46.10626 5.91637 4776 ft 237 kts 45°
2026-05-07 15:52 46.11787 5.93328 4459 ft 237 kts 45°
2026-05-07 15:52 46.12943 5.95013 4147 ft 235 kts 44°
2026-05-07 15:52 46.14088 5.96683 3842 ft 233 kts 44°
2026-05-07 15:53 46.15219 5.98332 3522 ft 228 kts 45°
2026-05-07 15:53 46.16289 5.99893 3235 ft 210 kts 44°
2026-05-07 15:53 46.17274 6.01334 2980 ft 198 kts 44°
2026-05-07 15:53 46.18210 6.02702 2720 ft 185 kts 44°
2026-05-07 15:54 46.19078 6.03971 2491 ft 168 kts 45°
2026-05-07 15:54 46.19856 6.05109 2268 ft 152 kts 46°
2026-05-07 15:54 46.20572 6.06158 2014 ft 143 kts 46°
2026-05-07 15:54 46.21256 6.07158 1789 ft 137 kts 45°
2026-05-07 15:55 46.21926 6.08137 1639 ft 137 kts 45°
2026-05-07 15:55 46.22598 6.09111 1499 ft 136 kts 45°
2026-05-07 15:55 46.23259 6.10085 1417 ft 135 kts 46°
2026-05-07 15:55 46.23807 6.10889 1402 ft 61 kts 46°
2026-05-07 15:56 46.23871 6.10998 1400 ft 5 kts 88°
2026-05-07 15:56 46.23805 6.11077 1402 ft 11 kts 168°
2026-05-07 15:56 46.23771 6.11085 1398 ft 0 kts 171°
2026-05-07 15:56 46.23768 6.11086 1398 ft 0 kts 171°
2026-05-07 15:57 46.23721 6.11084 1401 ft 14 kts 194°
2026-05-07 15:57 46.23633 6.11125 1400 ft 16 kts 136°
2026-05-07 15:57 46.23535 6.11112 1390 ft 17 kts 225°
2026-05-07 15:57 46.23454 6.10992 1403 ft 16 kts 225°
2026-05-07 15:58 46.23377 6.10879 1397 ft 16 kts 225°
2026-05-07 15:58 46.23298 6.10802 1393 ft 13 kts 201°
2026-05-07 15:58 46.23226 6.10749 1394 ft 11 kts 216°
2026-05-07 15:58 46.23178 6.10676 1398 ft 9 kts 229°
2026-05-07 15:59 46.23118 6.10588 1397 ft 13 kts 225°
2026-05-07 15:59 46.23042 6.10478 1393 ft 17 kts 225°
2026-05-07 15:59 46.22993 6.10473 1394 ft 5 kts 138°
2026-05-07 15:59 46.22975 6.10499 1393 ft 0 kts 135°